Home > Weather > Surat > Past weeks

Flag for India Weather for the Past 2 Weeks in Surat, Gujarat, India

Now
84 °F

Clear.


Feels Like: 82 °F
Forecast: 67 / 81 °F
Wind: 6 mph from West

Location: Ahmadabad Airport

Current Time: Feb 11, 2016 at 4:51:32 PM

Latest Report: Feb 11, 2016 at 4:30 PM


Visibility: 4 mi

Pressure: 29.83 "Hg

Humidity: 33%

Dew point: 52 °F

Location of SuratLocation

Historic Weather in Surat — Graph

°F

Surat Temperature Yesterday

Maximum temperature yesterday: 88 °F (at 4:00 PM)
Minimum temperature yesterday: 54 °F (at 7:30 AM)
Average temperature yesterday: 71 °F

High & Low Weather Summary for the Past Weeks

 TemperatureHumidityPressure
High93 °F (Jan 29, 2:30 PM)88% (Jan 28, 6:00 AM)30.09 "Hg (Jan 28, 6:00 AM)
Low52 °F (Feb 8, 5:30 AM)13% (Feb 8, 5:00 PM)29.77 "Hg (Feb 6, 4:00 PM)
Average72 °F48%29.96 "Hg
* Reported Jan 27 3:30 PM — Feb 11 3:30 PM, Surat, Weather by CustomWeather, © 2016

Note: Actual official high and low records may vary slightly from our data, if they occured in-between our weather recording intervals... More about our weather records

Advertising

Surat Weather History for the Previous 24 Hours

 ConditionsComfort  
Time TempWeatherWind HumidityBarometerVisibility
3:30 PM
Thu, Feb 11
86 °FPassing clouds.7 mph33%29.83 "Hg4 mi
3:00 PM86 °FPassing clouds.10 mph33%29.83 "Hg4 mi
2:30 PM84 °FPassing clouds.5 mph37%29.83 "Hg4 mi
2:00 PM84 °FPassing clouds.6 mph37%29.86 "Hg4 mi
1:30 PM84 °FPassing clouds.5 mph43%29.86 "Hg4 mi
1:00 PM82 °FPassing clouds.7 mph45%29.89 "Hg4 mi
12:30 PM81 °FPassing clouds.7 mph48%29.89 "Hg4 mi
12:00 PM81 °FPassing clouds.6 mph48%29.92 "Hg4 mi
11:30 AM77 °FPassing clouds.5 mph61%29.95 "Hg3 mi
11:00 AM77 °FHaze.3 mph61%29.95 "Hg2 mi
10:30 AM73 °FHaze.3 mph69%29.95 "Hg2 mi
10:00 AM72 °FHaze.6 mph73%29.95 "Hg2 mi
9:30 AM70 °FHaze.6 mph78%29.95 "Hg2 mi
9:00 AM70 °FHaze.3 mph73%29.95 "Hg2 mi
8:30 AM66 °FHaze.3 mph78%29.92 "Hg2 mi
7:30 AM63 °FHaze.3 mph77%29.89 "Hg1 mi
7:00 AM63 °FHaze.3 mph77%29.89 "Hg1 mi
6:30 AM63 °FHaze.3 mph73%29.86 "Hg2 mi
5:30 AM63 °FHaze.No wind68%29.86 "Hg2 mi
5:00 AM63 °FClear.2 mph68%29.86 "Hg2 mi
4:30 AM64 °FClear.5 mph64%29.86 "Hg2 mi
4:00 AM64 °FClear.6 mph64%29.86 "Hg2 mi
3:00 AM66 °FClear.5 mph56%29.86 "Hg2 mi
2:30 AM66 °FClear.7 mph52%29.86 "Hg2 mi
2:00 AM64 °FClear.3 mph49%29.86 "Hg2 mi
1:30 AM66 °FClear.3 mph43%29.86 "Hg2 mi
1:00 AM66 °FClear.2 mph40%29.86 "Hg2 mi
12:30 AM68 °FClear.2 mph38%29.86 "Hg2 mi
12:00 AM68 °FClear.3 mph38%29.86 "Hg2 mi
11:30 PM
Wed, Feb 10
66 °FClear.5 mph46%29.89 "Hg2 mi
11:00 PM64 °FClear.No wind52%29.89 "Hg2 mi
10:30 PM64 °FClear.No wind49%29.89 "Hg2 mi
10:00 PM66 °FClear.No wind46%29.89 "Hg2 mi
9:30 PM68 °FClear.No wind43%29.86 "Hg2 mi
9:00 PM70 °FClear.No wind38%29.86 "Hg2 mi
8:30 PM70 °FClear.2 mph35%29.86 "Hg2 mi
8:00 PM73 °FClear.3 mph31%29.86 "Hg2 mi
7:30 PM73 °FClear.2 mph33%29.83 "Hg2 mi
7:00 PM75 °FClear.No wind31%29.83 "Hg2 mi
6:30 PM79 °FClear.3 mph28%29.83 "Hg2 mi
6:00 PM82 °FClear.5 mph25%29.83 "Hg3 mi
5:30 PM84 °FClear.5 mph22%29.83 "Hg4 mi
5:00 PM84 °FClear.7 mph20%29.83 "Hg4 mi
4:30 PM86 °FClear.7 mph18%29.83 "Hg4 mi
4:00 PM88 °FClear.8 mph17%29.83 "Hg4 mi
Weather by CustomWeather, © 2016

See weather overviewHow to use our weather pages